Location: Saint Louis
(38.6272°N, 90.1978°W)
Time: 01:27:41
(UTC-05:00)

ISS - Pass Details

Date: 06 June 2013
Orbit: 401 x 404 km, 51.6° (Epoch: 25 July)

Event Time Altitude Azimuth Distance (km) Brightness Sun altitude
Rises 02:08:49 0° 317° (NW) 2,342 0.9 -26.6°
Reaches altitude 10° 02:12:19 10° 356° (N) 1,471 0.4 -26.4°
Maximum altitude 02:13:16 11° 13° (NNE) 1,413 0.4 -26.3°
Drops below altitude 10° 02:14:14 10° 30° (NNE) 1,466 0.5 -26.2°
Sets 02:17:41 0° 69° (ENE) 2,319 1.1 -26.0°
